Tracking 31027 objects as of 19-Jul-2025
HD Live streaming from Space Station
objects crossing your sky now

FENGYUN 1C DEB

Track FENGYUN 1C DEB now!
10-day predictions


NORAD ID: 31773
Int'l Code: 1999-025CFY
Perigee: 645.6 km
Apogee: 704.5 km
Inclination: 98.9 °
Period: 98.1 minutes
Semi major axis: 7046 km
RCS: 0.0025 m2 (small)
Launch date: May 10, 1999
Source: People's Republic of China (PRC)
Launch site: Taiyaun Space Center, China (TSC)

Note: This is SATELLITE DEBRIS
Your satellite tracking list
NUSAT-20 (GRACE)
Track 1 satellite(s)




NASA's NSSDC Master Catalog

Two Line Element Set (TLE):
1 31773U 99025CFY 25199.68159467  .00007628  00000-0  13270-2 0  9996
2 31773  98.9380 176.5485 0041795 277.0722  82.5728 14.67854082950482
Source of the keplerian elements: AFSPC